Meteo Giornale » Osservazioni meteo Brasile » Sao Paulo Aeropor-To

ore: 23:00 - Osservazioni Meteo Sao Paulo Aeropor-To
Lat. 23° 37' S Lon. 46° 39' W Alt. 803 metri s.l.m.

coperto America/Sao_Paulo

16 °C

Coperto

Temp. 24 Ore

15 °C

21 °C

Est/Sud-Est

11.1 Km/h

Dew point 13 °C

Umidità 82 %

Visibilità  9 Km

Il sole sorge alle ore 05:44

Il sole tramonta alle ore 18:07

Data e Ora Cielo e Fenomeni T °C DP °C Um. % Pres. hPa Vis. km Vento km/h
Oggi h: 23:00 coperto Coperto 16 13 82 1021 9 E/SE 11.1
Oggi h: 22:00 coperto Coperto 16 13 82 1022 10 E/SE 11.1
Oggi h: 21:00 coperto Coperto 16 13 82 1021 10 S/SE 11.1
Oggi h: 20:00 coperto Coperto 16 14 87 1021 10 S/SE 16.7
Oggi h: 19:00 coperto Coperto 16 14 87 1021 10 S/SE 16.7
Oggi h: 18:19 coperto Coperto 17 14 82 1020 10 S/SE 18.5
Oggi h: 18:00 nuvoloso Nuvoloso 17 14 82 1020 10 S/SE 16.7
Oggi h: 17:00 poco_nuvoloso Poco Nuvoloso 18 15 82 1020 10 SE 20.3
Oggi h: 16:00 poco_nuvoloso Poco Nuvoloso 20 15 72 1019 10 S/SE 22.2
Oggi h: 15:00 nuvoloso Nuvoloso 21 14 64 1020 10 S 16.7
Oggi h: 14:00 poco_nuvoloso Poco Nuvoloso 21 14 64 1020 10 S 13
Oggi h: 13:00 nuvoloso Nuvoloso 21 13 60 1020 10 S/SE 13
Oggi h: 12:00 molto_nuvoloso Molto Nuvoloso 20 13 64 1021 10 S/SO 11.1
Oggi h: 11:00 coperto Coperto 19 14 72 1022 10 S 9.3
Oggi h: 10:00 coperto Coperto 18 15 82 1022 10 S/SO 14.8
Oggi h: 09:00 molto_nuvoloso Molto Nuvoloso 18 14 77 1022 10 S/SE 11.1
Oggi h: 08:00 coperto Coperto 16 14 87 1022 10 S/SE 11.1
Oggi h: 07:00 coperto Coperto 15 14 93 1021 10 S 11.1
Oggi h: 06:00 coperto Coperto 16 14 87 1020 10 S 11.1
Oggi h: 05:25 coperto Coperto 16 15 93 1020 10 S 9.3
Oggi h: 05:00 coperto Coperto 16 15 93 1020 10 S/SE 7.4
Oggi h: 04:19 coperto Coperto 15 15 100 1020 10 S 11.1
Oggi h: 04:06 coperto Coperto 16 15 93 1020 5 S 11.1
Oggi h: 04:00 molto_nuvoloso Molto Nuvoloso 16 15 93 1020 10 S 9.3
Oggi h: 03:50 molto_nuvoloso Molto Nuvoloso 16 15 93 1019 9 S 7.4
Oggi h: 03:32 molto_nuvoloso Molto Nuvoloso 16 15 93 1019 7 N 5.5
Oggi h: 03:26 molto_nuvoloso Molto Nuvoloso 16 15 93 1019 6 S 7.4
Oggi h: 03:09 foschia Foschia 16 15 93 1019 4 S 7.4
Oggi h: 03:05 foschia Foschia 16 15 93 1019 5 N 5.5
Oggi h: 03:00 foschia Foschia 16 15 93 1019 4 N 5.5
Oggi h: 02:45 foschia Foschia 16 15 93 1019 4 S 7.4
Oggi h: 02:24 foschia Foschia 15 15 100 1019 4 N 5.5
Oggi h: 02:13 foschia Foschia 15 15 100 1020 2 N 5.5
Oggi h: 02:00 foschia Foschia 15 14 93 1020 4 N 5.5
Oggi h: 01:43 foschia Foschia 16 15 93 1020 5 N 3.7
Oggi h: 01:14 nuvoloso Nuvoloso 16 15 93 1020 6 N 3.7
Oggi h: 01:01 foschia Foschia 16 15 93 1020 3 N 1.8
Oggi h: 01:00 nuvoloso Nuvoloso 16 15 93 1021 6 N 0
Oggi h: 00:00 nuvoloso Nuvoloso 17 16 93 1021 8 N 1.8